This demonstration page uses our WeatherBlox Daily Observations layout. Learn more.

Left ArrowRight Arrow

Hourly Observations for May 9, 2018

Temp ( °F °C ) Dew Point ( °F °C ) Humidity (%) Winds ( mph kmh ) Pressure ( in mb ) Visibility ( mi km ) Precip ( " mm )
1:55 am 01:55 Clear 56 13.6 48 9 74 74 NW 6 9 29.88 1012 10 16.0934 0 0
2:55 am 02:55 Clear 57 13.7 48 8.9 73 73 WNW 7 11 29.91 1013 10 16.0934 0 0
3:15 am 03:15 Clear 56 13.3 48 8.9 75 75 NW 5 7 29.88 1012 10 16.0934 0 0
3:35 am 03:35 Clear 56 13.1 48 8.8 75 75 NW 5 7 29.88 1012 10 16.0934 0 0
3:55 am 03:55 Clear 55 12.9 48 8.7 76 76 NW 6 9 29.88 1012 10 16.0934 0 0
4:15 am 04:15 Clear 55 12.8 48 8.8 77 77 WNW 5 7 29.91 1013 10 16.0934 0 0
4:35 am 04:35 Clear 54 12.1 48 8.9 81 81 NW 6 9 29.91 1013 10 16.0934 0 0
4:55 am 04:55 Clear 53 11.6 49 9.3 86 86 NW 8 13 29.94 1014 10 16.0934 0 0
5:15 am 05:15 Clear 55 13 50 9.8 81 81 NNW 10 17 29.91 1013 10 16.0934 0 0
5:35 am 05:35 Clear 56 13.1 50 9.9 81 81 NW 8 13 29.91 1013 10 16.0934 0 0
5:55 am 05:55 Clear 54 12 49 9.5 85 85 WNW 7 11 29.91 1013 10 16.0934 0 0
6:15 am 06:15 Clear 52 11.3 48 9 86 86 WNW 6 9 29.94 1014 10 16.0934 0 0
6:35 am 06:35 Sunny 52 10.9 48 9 88 88 WNW 6 9 29.94 1014 10 16.0934 0 0
6:55 am 06:55 Sunny 52 11 48 8.9 87 87 NW 6 9 29.94 1014 10 16.0934 0 0
7:15 am 07:15 Sunny 53 11.8 49 9.6 87 87 WNW 7 11 29.97 1015 10 16.0934 0 0
7:35 am 07:35 Sunny 56 13.1 50 10.2 83 83 NW 6 9 29.94 1014 10 16.0934 0 0
7:55 am 07:55 Sunny 58 14.4 51 10.8 79 79 NW 8 13 29.94 1014 10 16.0934 0 0
8:15 am 08:15 Sunny 60 15.4 52 11 75 75 NW 9 15 29.94 1014 10 16.0934 0 0
8:35 am 08:35 Sunny 62 16.6 52 11.3 71 71 NW 12 19 29.91 1013 10 16.0934 0 0
8:55 am 08:55 Sunny 64 17.8 52 11 65 65 NW 13 20 29.91 1013 10 16.0934 0 0
9:15 am 09:15 Sunny 66 19 51 10.4 58 58 NW 9 15 29.91 1013 10 16.0934 0 0
9:35 am 09:35 Sunny 68 20.1 50 9.8 52 52 NW 9 15 29.88 1012 10 16.0934 0 0
9:55 am 09:55 Sunny 70 21.2 49 9.4 47 47 NW 12 19 29.88 1012 10 16.0934 0 0
10:15 am 10:15 Sunny 71 21.8 49 9.7 46 46 NW 10 17 29.88 1012 10 16.0934 0 0
10:35 am 10:35 Sunny 73 22.5 49 9.5 44 44 NW 8 13 29.88 1012 10 16.0934 0 0
10:55 am 10:55 Sunny 74 23.3 50 9.9 43 43 WNW 9 15 29.85 1011 10 16.0934 0 0
11:15 am 11:15 Sunny 75 24 49 9.4 40 40 NW 10 17 29.85 1011 10 16.0934 0 0
11:35 am 11:35 Sunny 76 24.5 49 9.5 39 39 NW 9 15 29.85 1011 10 16.0934 0 0
11:55 am 11:55 Sunny 77 25 49 9.2 37 37 NW 14 22 29.83 1010 10 16.0934 0 0
12:15 pm 12:15 Sunny 78 25.7 49 9.4 36 36 NNW 13 20 29.83 1010 10 16.0934 0 0
12:35 pm 12:35 Sunny 79 26.1 48 9.1 34 34 NW 10 17 29.83 1010 10 16.0934 0 0
12:55 pm 12:55 Sunny 80 26.4 48 9.1 34 34 NW 12 19 29.8 1009 10 16.0934 0 0
1:15 pm 13:15 Sunny 81 27.1 49 9.5 33 33 NW 12 19 29.77 1008 10 16.0934 0 0
1:35 pm 13:35 Sunny 81 27.1 49 9.6 33 33 W 9 15 29.77 1008 10 16.0934 0 0
1:55 pm 13:55 Partly Cloudy 82 27.9 49 9.5 32 32 NNW 14 22 29.77 1008 10 16.0934 0 0
2:15 pm 14:15 Partly Cloudy 82 28 48 8.7 30 30 NW 18 30 29.77 1008 10 16.0934 0 0
2:35 pm 14:35 Partly Cloudy 83 28.6 48 8.8 29 29 NW 17 28 29.77 1008 10 16.0934 0 0
2:55 pm 14:55 Sunny 83 28.6 47 8.5 28 28 WNW 14 22 29.77 1008 10 16.0934 0 0
3:15 pm 15:15 Sunny 83 28.4 46 8 28 28 WNW 10 17 29.77 1008 10 16.0934 0 0
3:35 pm 15:35 Sunny 84 28.7 46 7.7 27 27 NW 18 30 29.77 1008 10 16.0934 0 0
3:55 pm 15:55 Sunny 85 29.2 47 8.5 27 27 NW 13 20 29.77 1008 10 16.0934 0 0
4:15 pm 16:15 Mostly Cloudy 83 28.6 47 8.3 28 28 WNW 14 22 29.74 1007 10 16.0934 0 0
4:35 pm 16:35 Mostly Cloudy 84 28.8 47 8.1 27 27 WNW 17 28 29.74 1007 10 16.0934 0 0
4:55 pm 16:55 Mostly Cloudy 83 28.6 46 7.9 27 27 WNW 14 22 29.74 1007 10 16.0934 0 0
5:15 pm 17:15 Mostly Cloudy 84 28.7 48 8.8 29 29 WNW 13 20 29.74 1007 10 16.0934 0 0
5:35 pm 17:35 Mostly Cloudy 83 28.3 47 8.5 29 29 WNW 9 15 29.74 1007 10 16.0934 0 0
5:55 pm 17:55 Cloudy 82 27.6 47 8.4 30 30 N 9 15 29.74 1007 10 16.0934 0 0
6:15 pm 18:15 Mostly Cloudy 83 28.5 48 8.8 29 29 NW 7 11 29.74 1007 10 16.0934 0 0
6:35 pm 18:35 Partly Cloudy 82 28 47 8.4 29 29 N 12 19 29.74 1007 10 16.0934 0 0
6:55 pm 18:55 Mostly Cloudy 83 28.4 47 8.4 28 28 N 12 19 29.74 1007 10 16.0934 0 0
7:15 pm 19:15 Partly Cloudy 81 27.4 47 8.5 30 30 NNE 10 17 29.74 1007 10 16.0934 0 0
7:35 pm 19:35 Sunny 80 26.7 48 8.7 32 32 NNE 8 13 29.74 1007 10 16.0934 0 0
7:55 pm 19:55 Sunny 79 25.9 47 8.6 33 33 NE 7 11 29.74 1007 10 16.0934 0 0
8:15 pm 20:15 Sunny 77 24.9 47 8.5 35 35 NE 8 13 29.77 1008 10 16.0934 0 0
8:35 pm 20:35 Sunny 74 23.1 48 8.7 40 40 NE 6 9 29.8 1009 10 16.0934 0 0
8:55 pm 20:55 Clear 70 21 46 7.7 42 42 ENE 8 13 29.83 1010 10 16.0934 0 0
9:15 pm 21:15 Clear 68 20.1 46 8 46 46 ENE 10 17 29.83 1010 10 16.0934 0 0
9:35 pm 21:35 Clear 66 19.1 46 8 49 49 NE 14 22 29.83 1010 10 16.0934 0 0
9:55 pm 21:55 Clear 67 19.2 47 8.3 49 49 ENE 12 19 29.83 1010 10 16.0934 0 0
10:15 pm 22:15 Clear 64 17.7 47 8.5 55 55 E 9 15 29.88 1012 10 16.0934 0 0
10:35 pm 22:35 Clear 65 18.5 47 8.2 51 51 E 8 13 29.88 1012 10 16.0934 0 0
10:55 pm 22:55 Mostly Cloudy 65 18.1 47 8.3 53 53 E 8 13 29.88 1012 10 16.0934 0 0

Powered by AerisWeather